Weather History for Cannes, France

Change the Weather History Date:

Saturday, May 25, 2013

  Actual Average Record
Temperature  
Mean Temperature 58 °F -  
Max Temperature 68 °F 72 °F 84 °F (2011)
Min Temperature 48 °F 62 °F 48 °F (2013)
Degree Days  
Heating Degree Days 7    
Growing Degree Days 8 (Base 50)    
Moisture  
Dew Point 36 °F    
Average Humidity 46    
Maximum Humidity 76    
Minimum Humidity 26    
Precipitation  
Precipitation 0.00 in - - ()
Sea Level Pressure  
Sea Level Pressure 29.73 in    
Wind  
Wind Speed 8 mph ()    
Max Wind Speed 22 mph    
Max Gust Speed 36 mph    
Visibility 6.2 miles    
Events      
Averages and records for this station are not official NWS values.
T = Trace of Precipitation, MM = Missing Value Source: Averaged Metar Reports

Daily Weather History Graph

Daily Weather History Graph

Search for Another Location

Airport:

Trip Planner

Search our weather history database for the weather conditions in past years. The results will help you decide how hot, cold, wet, or windy it might be!

Date:

Astronomy

May. 25, 2013 Rise Set
Actual Time 5:58 AM CEST 9:00 PM CEST
Civil Twilight 5:24 AM CEST 9:34 PM CEST
Nautical Twilight 4:40 AM CEST 10:18 PM CEST
Astronomical Twilight 3:48 AM CEST 11:10 PM CEST
Moon 9:30 PM CEST (5/25) 6:10 AM CEST (5/25)
Length of Visible Light 16h 10m
Length of Day
15h 02m
Full, 100% of the Moon is Illuminated
May 25
Full
May 31
Last Quarter
Jun 8
New
Jun 16
First Quarter
Jun 23
Full

Hourly Weather History & Observations

Time (CEST) Temp. Dew Point Humidity Pressure Visibility Wind Dir Wind Speed Gust Speed Precip Events Conditions
12:00 AM 51.8 °F 37.4 °F 58% 29.77 in 6.2 mi Variable 2.3 mph - N/A   Unknown
12:30 AM 50.0 °F 37.4 °F 62% 29.77 in 6.2 mi Calm Calm - N/A   Unknown
1:00 AM 50.0 °F 35.6 °F 58% 29.77 in 6.2 mi Variable 2.3 mph - N/A   Unknown
1:30 AM 48.2 °F 37.4 °F 66% 29.77 in 6.2 mi Variable 2.3 mph - N/A   Unknown
2:00 AM 51.8 °F 30.2 °F 44% 29.77 in 6.2 mi Variable 4.6 mph 16.1 mph N/A   Unknown
2:30 AM 55.4 °F 26.6 °F 33% 29.74 in 6.2 mi West 16.1 mph - N/A   Unknown
3:00 AM 57.2 °F 24.8 °F 29% 29.74 in 6.2 mi WNW 12.7 mph - N/A   Unknown
3:30 AM 55.4 °F 26.6 °F 33% 29.74 in 6.2 mi West 12.7 mph - N/A   Unknown
4:00 AM 55.4 °F 26.6 °F 33% 29.74 in 6.2 mi West 12.7 mph - N/A   Unknown
4:30 AM 57.2 °F 28.4 °F 33% 29.74 in 6.2 mi WNW 13.8 mph - N/A   Unknown
5:00 AM 53.6 °F 28.4 °F 38% 29.74 in 6.2 mi West 11.5 mph - N/A   Unknown
5:30 AM 51.8 °F 32.0 °F 47% 29.74 in 6.2 mi WSW 13.8 mph - N/A   Unknown
6:00 AM 53.6 °F 33.8 °F 47% 29.74 in 6.2 mi West 11.5 mph - N/A   Unknown
6:30 AM 53.6 °F 33.8 °F 47% 29.74 in 6.2 mi WSW 9.2 mph - N/A   Unknown
7:00 AM 51.8 °F 35.6 °F 54% 29.74 in 6.2 mi West 8.1 mph - N/A   Unknown
7:30 AM 51.8 °F 35.6 °F 54% 29.71 in 6.2 mi West 11.5 mph - N/A   Unknown
8:00 AM 53.6 °F 37.4 °F 54% 29.71 in 6.2 mi West 15.0 mph - N/A   Unknown
8:30 AM 55.4 °F 37.4 °F 51% 29.71 in 6.2 mi West 16.1 mph - N/A   Unknown
9:00 AM 55.4 °F 37.4 °F 51% 29.71 in 6.2 mi West 17.3 mph 29.9 mph N/A   Unknown
9:30 AM 55.4 °F 35.6 °F 47% 29.71 in 6.2 mi West 16.1 mph - N/A   Unknown
10:00 AM 59.0 °F 35.6 °F 42% 29.71 in 6.2 mi West 11.5 mph - N/A   Unknown
10:30 AM 59.0 °F 35.6 °F 42% 29.71 in 6.2 mi West 13.8 mph 27.6 mph N/A   Unknown
11:00 AM 59.0 °F 37.4 °F 45% 29.68 in 6.2 mi West 21.9 mph 35.7 mph N/A   Unknown
11:30 AM 60.8 °F 37.4 °F 42% 29.68 in 6.2 mi West 15.0 mph - N/A   Unknown
12:00 PM 62.6 °F 33.8 °F 34% 29.68 in 6.2 mi WNW 13.8 mph 29.9 mph N/A   Unknown
12:30 PM 62.6 °F 32.0 °F 32% 29.68 in 6.2 mi WNW 12.7 mph 25.3 mph N/A   Unknown
1:00 PM 64.4 °F 32.0 °F 30% 29.68 in 6.2 mi WNW 17.3 mph - N/A   Unknown
1:30 PM 66.2 °F 32.0 °F 28% 29.68 in 6.2 mi West 13.8 mph - N/A   Unknown
2:00 PM 68.0 °F 33.8 °F 28% 29.68 in 6.2 mi WNW 15.0 mph 31.1 mph N/A   Unknown
2:30 PM 64.4 °F 42.8 °F 45% 29.71 in 6.2 mi Variable 10.4 mph - N/A   Unknown
3:00 PM 60.8 °F 39.2 °F 45% 29.71 in 6.2 mi ENE 10.4 mph - N/A   Partly Cloudy
3:30 PM 62.6 °F 37.4 °F 39% 29.71 in 6.2 mi Variable 4.6 mph - N/A   Partly Cloudy
4:00 PM 62.6 °F 41.0 °F 45% 29.71 in 6.2 mi SE 8.1 mph - N/A   Mostly Cloudy
4:30 PM 62.6 °F 39.2 °F 42% 29.71 in 6.2 mi SE 9.2 mph - N/A   Mostly Cloudy
5:00 PM 64.4 °F 39.2 °F 40% 29.71 in 6.2 mi SE 10.4 mph - N/A   Scattered Clouds
5:30 PM 64.4 °F 37.4 °F 37% 29.71 in 6.2 mi Variable 6.9 mph 20.7 mph N/A   Scattered Clouds
6:00 PM 68.0 °F 32.0 °F 26% 29.71 in 6.2 mi Variable 4.6 mph - N/A   Partly Cloudy
6:30 PM 66.2 °F 30.2 °F 26% 29.71 in 6.2 mi Variable 5.8 mph - N/A   Partly Cloudy
7:00 PM 62.6 °F 42.8 °F 48% 29.74 in 6.2 mi SE 5.8 mph - N/A   Unknown
7:30 PM 62.6 °F 42.8 °F 48% 29.74 in 6.2 mi SSE 3.5 mph - N/A   Unknown
8:00 PM 60.8 °F 42.8 °F 52% 29.74 in 6.2 mi SE 6.9 mph - N/A   Unknown
8:30 PM 59.0 °F 42.8 °F 55% 29.77 in 6.2 mi SE 3.5 mph - N/A   Unknown
9:00 PM 59.0 °F 42.8 °F 55% 29.77 in 6.2 mi Variable 2.3 mph - N/A   Unknown
9:30 PM 55.4 °F 44.6 °F 67% 29.77 in 6.2 mi Variable 2.3 mph - N/A   Unknown
10:00 PM 53.6 °F 44.6 °F 72% 29.80 in 6.2 mi Variable 2.3 mph - N/A   Unknown
10:30 PM 51.8 °F 42.8 °F 71% 29.80 in 6.2 mi Variable 3.5 mph - N/A   Unknown
11:00 PM 51.8 °F 42.8 °F 71% 29.80 in 6.2 mi NNE 3.5 mph - N/A   Unknown
11:30 PM 50.0 °F 42.8 °F 76% 29.83 in 6.2 mi Variable 1.2 mph - N/A   Unknown